Погода в Красном Яре

Россия / Омская область     55°14′30″N   72°55′20″E
темп.,
°C
ветер,
м/с
пор.,
м/с
влажн.,
%
обл.,
%
осадки,
мм/ч
давл.,
гПа
погр.,
м
20 июня, вс
вс2000:00+9з3670100 0.0 1011100
03:00+7з468261 0.0 101090
06:00+9зюз388121 0.0 1009165
09:00+15юз5860100 0.0 1006681
12:00+17юз8959100 0.2 10031883
15:00+13ююз81378100 0.2 1000917
18:00+13з81296100 9.9 997783
21:00+11сз611835 0.8 999513
21 июня, пн
пн2100:00+6зсз498690 0.8 1001205
03:00+7зсз6989100 0.1 1000637
06:00+6сз479246 0.4 1001388
09:00+7сз4791100 0.1 1003586
12:00+8с5994100 0.6 1006557
15:00+13всв498199 1.6 1008736
18:00+16ссв6117161 3.1 10101356
21:00+13ссз6128198 0.8 1012340
22 июня, вт
вт2200:00+11ссз6129288 0.9 1013356
03:00+10ссз51187100 0.0 1013334
06:00+10с5108097 0.0 1014358
09:00+14с576345 0.0 1015743
12:00+15ссз676297 0.6 10151276
15:00+16ссз575599 1.1 10151912
18:00+15с676025 1.7 10151243
21:00+12сз3575100 0.3 101572
23 июня, ср
ср2300:00+9ссз227799 0.4 101527
03:00+9сз3479100 0.0 101585
06:00+10ссз257689 0.0 1015166
09:00+13ссв45625 0.0 1015716
12:00+16ссв5654100 0.4 10151630
15:00+16ссв665254 0.4 10151669
18:00+15с675898 0.6 10161050
21:00+12ссз377132 0.0 1016153
24 июня, чт
чт2400:00+9с3579100 0.0 101768
03:00+7ссз3579100 0.0 101782
06:00+9ссз3775100 0.0 1017198
09:00+13ссз465965 0.0 1017572
12:00+16ссз5647100 0.0 10162120
15:00+17ссз474899 0.0 10151969
18:00+14ссз5863100 0.1 10171497
21:00+12зсз3768100 0.0 1016247